Location: Hartford
(41.7640°N, 72.6860°W)
Time: 13:04:09
(UTC-04:00)

ISS - Visible Passes

Search period start: 28 September 2016 00:00
Search period end: 08 October 2016 00:00
Orbit: 400 x 410 km, 51.6° (Epoch: 29 September)

Date Brightness Start Highest point End Pass type
(mag) Time Alt. Az. Time Alt. Az. Time Alt. Az.
28 Sep -1.2 19:08:15 10° SSE 19:09:44 13° SE 19:11:14 10° ESE visible
28 Sep -1.3 20:42:34 10° WSW 20:44:06 25° WSW 20:44:06 25° WSW visible
29 Sep -3.3 19:50:32 10° SW 19:53:44 57° SE 19:54:42 38° E visible
30 Sep -2.3 18:58:51 10° SSW 19:01:44 29° SE 19:04:37 10° ENE visible
30 Sep -1.8 20:35:07 10° W 20:37:48 34° NW 20:37:48 34° NW visible
01 Oct -2.9 19:42:44 10° WSW 19:45:57 60° NNW 19:48:03 20° NE visible
01 Oct 0.3 21:20:38 10° WNW 21:20:43 10° WNW 21:20:43 10° WNW visible
02 Oct -1.2 20:27:56 10° WNW 20:30:34 22° NNW 20:30:49 22° NNW visible
03 Oct -1.7 19:35:18 10° W 19:38:14 31° NNW 19:40:50 12° NE visible
04 Oct -0.9 20:20:50 10° NW 20:23:03 17° N 20:23:25 16° N visible
05 Oct -1.1 19:28:06 10° WNW 19:30:37 20° NNW 19:33:09 10° NE visible
06 Oct -0.8 20:13:36 10° NW 20:15:32 15° N 20:15:44 14° N visible
07 Oct -0.9 19:20:56 10° NW 19:23:02 16° N 19:25:08 10° NNE visible
